Temp
86 99 100 86 75 83 79 85 92 87 89 96 98 94 95 98 93 82 109 109 110 104 94 88 80 80 80 80 80 80 80 79 79 79 79 79 79 79 79 79 80 80 81 81 81 81 81 80 80
95 97 97 89 63 72 79 91 84 91 94 96 97 96 94 92 102 100 104 106 109 104 94 93 79 80 80 80 80 80 80 80 80 79 79 79 79 79 79 79 80 80 81 81 81 81 80 80 80
91 97 87 82 72 59 75 87 88 93 94 94 92 97 95 92 99 100 105 106 106 104 98 94 79 79 80 80 79 79 79 79 80 80 79 79 79 79 79 79 79 80 81 81 81 80 80 80 80
93 93 90 76 74 74 72 81 91 89 94 95 95 89 98 102 98 102 104 105 107 107 101 86 79 79 80 80 79 79 79 79 79 79 79 79 79 79 78 79 79 80 81 81 81 80 80 80 79
92 87 76 74 76 81 83 84 91 88 91 92 94 89 91 100 104 103 102 104 105 108 104 93 79 80 80 80 79 79 79 79 79 79 79 79 79 78 78 78 79 80 80 81 80 80 79 79 79
84 85 71 69 76 82 85 87 89 87 90 93 91 91 93 104 102 103 103 103 107 107 104 94 81 79 79 80 79 78 78 78 78 79 79 79 78 78 78 78 79 79 80 80 80 79 78 78 78
81 80 73 75 76 79 83 88 84 84 83 87 96 85 95 99 102 105 105 102 104 108 104 95 90 84 79 79 78 78 78 78 78 78 78 78 78 78 78 78 78 78 79 79 79 78 78 77 77
87 83 75 77 74 76 86 88 88 84 85 92 95 85 89 97 102 106 107 103 104 107 106 98 92 92 89 88 78 78 78 77 78 78 78 78 78 78 78 77 77 78 78 78 78 78 77 77 76
92 76 72 75 77 80 87 82 89 92 87 89 91 94 97 100 103 103 103 103 102 105 104 102 98 94 93 94 87 79 78 78 78 79 78 78 88 87 86 83 80 78 78 78 78 77 77 76 76
82 74 75 85 86 85 88 87 83 84 82 83 88 94 98 98 98 97 99 98 98 100 102 103 99 96 96 99 92 88 89 89 88 89 87 86 89 92 92 87 80 78 78 78 77 77 77 77 87
82 74 82 85 89 90 87 86 88 82 77 82 83 88 92 94 93 95 98 98 96 99 100 102 97 96 96 99 98 93 94 92 91 89 89 89 92 92 93 93 88 85 80 86 83 83 83 85 88
77 82 83 85 87 87 83 87 83 84 82 88 86 88 92 90 90 93 95 97 96 96 98 99 97 94 94 99 99 98 96 95 93 92 90 89 89 91 92 93 94 89 91 87 88 90 87 86 87
78 80 83 86 84 84 86 81 82 84 88 90 89 86 88 89 88 92 94 97 95 93 95 95 94 89 88 87 93 95 95 96 96 95 92 91 91 89 92 90 93 95 95 94 91 91 90 89 88
81 79 80 83 82 83 79 80 82 84 89 88 87 84 85 88 90 90 90 91 92 91 91 93 90 89 88 87 85 89 90 96 95 95 94 89 90 90 91 90 91 92 95 95 94 92 90 89 89
78 71 76 78 79 78 82 74 76 85 88 86 85 84 83 86 90 89 90 89 89 90 89 90 87 87 84 84 85 86 91 92 95 95 93 91 88 89 89 91 91 92 92 91 90 89 89 87 89
71 73 66 78 80 80 78 66 79 87 85 84 83 85 82 81 85 88 90 90 86 86 84 81 86 90 85 84 84 88 88 91 92 94 93 91 89 87 88 89 91 92 91 91 87 87 87 89 89
71 63 67 72 79 75 75 69 79 86 81 79 81 83 82 82 82 84 89 87 84 85 82 78 80 83 87 84 86 85 84 88 87 91 93 91 89 88 85 89 90 89 89 89 82 84 87 87 87
64 66 68 67 75 74 70 70 77 82 80 78 80 81 82 81 80 84 85 86 81 83 83 82 78 79 81 84 84 86 87 88 88 88 90 89 88 87 86 88 88 87 87 87 85 83 88 87 88
67 64 63 69 75 70 68 68 73 78 80 79 79 80 81 81 85 84 84 83 81 80 78 81 79 73 78 81 83 87 89 87 84 87 87 89 87 87 85 86 82 84 83 80 83 85 83 85 87
65 62 62 68 73 69 67 66 72 75 76 78 79 80 81 83 83 83 83 80 80 77 76 74 78 78 73 70 75 81 84 89 90 89 89 89 87 84 83 80 85 81 85 82 78 82 85 85 87
64 61 62 62 67 69 65 62 67 75 78 79 81 82 82 82 82 80 81 80 78 77 74 75 75 76 75 75 74 74 77 79 82 84 84 87 88 87 84 85 81 83 81 79 82 84 82 85 87
58 69 66 62 59 53 67 52 64 71 72 75 77 78 79 80 80 79 78 77 77 77 77 76 75 74 79 78 73 70 72 73 83 80 82 87 90 87 87 83 84 83 83 83 85 85 85 82 84
62 68 65 62 59 58 59 55 62 71 68 72 74 76 78 80 80 79 78 77 78 77 78 77 75 73 74 75 74 73 72 77 81 76 77 79 76 84 87 86 84 83 80 84 87 84 82 85 85
69 64 63 63 60 49 57 57 59 66 68 71 74 75 77 79 80 80 80 79 78 81 80 78 75 74 73 73 74 73 71 71 75 76 79 78 76 76 84 84 83 83 84 84 86 85 83 83 84
66 58 48 46 45 46 63 57 61 68 71 72 73 75 76 79 79 79 78 79 79 77 78 78 77 75 75 74 74 74 74 73 73 73 76 75 78 78 76 80 81 85 83 85 84 84 84 82 82
61 57 47 35 41 48 57 50 60 70 74 75 74 75 76 77 79 79 79 79 79 79 77 77 77 75 76 75 74 74 74 76 78 76 75 78 81 82 80 82 85 84 85 86 86 86 84 83 82
60 55 62 50 52 44 52 60 68 70 69 70 72 73 73 75 76 76 78 79 79 78 77 76 76 76 75 76 75 74 75 73 75 76 75 78 77 82 84 87 86 85 85 87 85 84 82 83 81
62 66 49 47 36 36 48 50 52 59 64 69 69 70 72 75 76 77 78 78 79 80 78 77 76 76 76 76 76 76 75 76 76 75 75 75 77 80 84 85 85 85 86 86 84 84 84 81 80
58 55 56 55 49 38 37 44 62 58 66 66 68 71 73 74 76 77 78 80 81 81 81 79 78 76 76 76 75 75 76 76 77 77 77 77 76 78 80 84 85 84 85 85 83 83 84 80 79
62 57 52 39 43 49 48 50 64 61 68 68 68 71 74 76 76 78 78 79 79 79 80 79 77 76 76 76 76 75 75 75 75 76 77 78 78 79 81 83 83 86 86 85 83 81 84 82 81
MSLP
1009.55 1008.20 1008.05 1007.83 1006.61 1003.09 1000.54 999.08 998.75 999.47 999.82 999.93 1000.10 1000.13 999.35 998.82 998.92 999.90 1000.88 1001.44 1001.75 1003.13 1005.28 1006.23 1006.73 1007.14 1007.82 1008.50 1008.73 1009.04 1009.46 1009.96 1010.41 1010.72 1011.05 1011.42 1011.68 1011.89 1012.15 1012.53 1012.84 1013.04 1013.35 1013.55 1013.64 1013.75 1013.89 1014.03 1014.06
1009.13 1008.08 1007.25 1006.79 1006.75 1003.11 1000.41 999.25 999.77 1000.03 1000.14 1001.07 1000.68 1000.18 1000.16 999.83 1000.07 1001.30 1001.23 1002.52 1002.36 1003.35 1005.11 1006.04 1006.74 1007.28 1007.74 1008.48 1008.84 1009.16 1009.59 1010.05 1010.46 1010.83 1011.15 1011.42 1011.71 1012.03 1012.32 1012.59 1012.95 1013.18 1013.45 1013.74 1013.80 1013.92 1013.98 1014.18 1014.35
1009.65 1008.21 1006.70 1005.38 1005.26 1004.93 1001.15 999.96 1000.47 1000.32 1001.20 1001.17 1000.76 1000.65 1000.60 1000.86 1001.55 1002.47 1002.86 1002.87 1002.90 1003.53 1004.88 1005.62 1006.78 1007.27 1007.72 1008.62 1009.22 1009.46 1009.74 1010.08 1010.43 1010.82 1011.20 1011.62 1011.87 1012.16 1012.53 1012.88 1013.08 1013.29 1013.47 1013.76 1013.88 1013.96 1014.13 1014.27 1014.33
1008.28 1007.18 1006.37 1004.90 1003.36 1004.19 1003.67 1002.45 1001.39 1001.41 1001.59 1001.36 1001.11 1000.99 1001.20 1002.13 1002.93 1003.30 1003.35 1002.99 1002.66 1003.12 1004.46 1005.76 1007.02 1007.13 1007.67 1008.43 1009.22 1009.80 1010.11 1010.40 1010.73 1011.06 1011.38 1011.71 1012.08 1012.42 1012.80 1013.20 1013.43 1013.51 1013.66 1013.93 1014.03 1014.03 1014.18 1014.28 1014.38
1008.18 1006.70 1005.09 1003.82 1003.20 1003.04 1003.06 1003.70 1002.17 1002.04 1001.37 1001.31 1001.13 1001.21 1001.46 1001.98 1003.04 1003.23 1003.10 1002.67 1002.16 1002.64 1003.79 1005.58 1006.83 1007.42 1007.78 1008.34 1009.15 1009.76 1010.24 1010.68 1011.10 1011.40 1011.82 1012.07 1012.20 1012.51 1012.90 1013.24 1013.57 1013.87 1013.85 1013.95 1014.12 1014.20 1014.29 1014.42 1014.56
1006.76 1006.03 1004.65 1003.23 1002.38 1002.52 1002.68 1003.46 1003.18 1002.88 1002.04 1001.61 1001.45 1001.45 1001.55 1001.85 1002.95 1002.80 1002.85 1002.61 1002.10 1002.37 1003.60 1005.44 1006.89 1007.52 1007.73 1008.28 1009.25 1009.86 1010.52 1010.92 1011.19 1011.69 1012.12 1012.44 1012.65 1012.71 1012.88 1013.28 1013.65 1013.94 1014.12 1014.15 1014.22 1014.38 1014.41 1014.52 1014.63
1006.11 1004.86 1003.80 1003.07 1002.14 1001.70 1001.99 1003.41 1003.55 1003.21 1003.59 1002.37 1001.61 1002.15 1001.80 1002.00 1003.30 1002.78 1002.30 1002.84 1002.63 1002.34 1003.48 1005.28 1006.77 1007.81 1008.11 1008.43 1008.93 1009.96 1010.61 1011.14 1011.53 1011.92 1012.18 1012.52 1012.82 1013.13 1013.11 1013.33 1013.68 1013.95 1014.07 1014.26 1014.18 1014.38 1014.46 1014.52 1014.64
1005.59 1004.75 1003.33 1002.41 1001.90 1001.40 1001.86 1002.51 1003.47 1003.56 1003.01 1003.78 1002.62 1002.44 1001.85 1002.32 1003.45 1002.65 1002.02 1002.59 1002.57 1002.43 1003.36 1005.01 1006.47 1007.39 1007.98 1008.47 1009.06 1009.65 1010.52 1011.06 1011.64 1012.01 1012.23 1012.60 1012.87 1013.20 1013.48 1013.54 1013.72 1013.87 1013.97 1014.34 1014.19 1014.23 1014.38 1014.59 1014.68
1005.45 1004.30 1002.56 1001.98 1001.62 1001.20 1001.66 1002.56 1002.76 1003.70 1003.41 1003.22 1003.62 1002.59 1002.58 1003.09 1003.46 1002.64 1002.25 1002.13 1002.84 1002.37 1003.42 1004.53 1005.99 1006.86 1007.40 1007.81 1008.94 1009.72 1010.33 1010.98 1011.61 1012.05 1012.45 1012.69 1012.35 1012.52 1012.82 1012.95 1013.18 1013.55 1013.89 1013.96 1014.06 1014.08 1014.19 1014.41 1014.57
1004.87 1003.56 1002.45 1001.92 1001.38 1000.90 1000.82 1001.38 1002.61 1003.32 1003.79 1003.41 1002.81 1002.97 1002.87 1003.26 1003.63 1003.19 1002.55 1002.51 1002.80 1002.95 1003.28 1004.07 1005.35 1006.21 1006.99 1006.96 1007.94 1009.21 1009.59 1010.30 1010.79 1011.15 1011.61 1012.15 1011.81 1011.58 1011.73 1012.04 1012.83 1013.37 1013.71 1013.87 1013.97 1014.13 1014.18 1014.37 1013.66
1004.23 1003.07 1002.56 1001.76 1001.46 1001.23 1001.05 1001.14 1001.92 1002.81 1003.34 1003.49 1003.36 1003.21 1003.55 1003.60 1004.34 1003.78 1003.17 1003.03 1003.65 1003.45 1003.69 1004.16 1005.21 1006.01 1006.69 1006.62 1007.06 1008.24 1008.78 1009.33 1009.99 1010.57 1010.89 1011.17 1011.19 1011.19 1011.24 1011.43 1012.08 1012.67 1013.29 1013.23 1013.29 1013.51 1013.76 1013.36 1013.00
1003.62 1003.21 1002.98 1002.38 1001.94 1001.67 1001.68 1002.02 1002.06 1002.33 1003.24 1003.28 1004.04 1004.14 1003.47 1003.98 1004.41 1004.15 1003.83 1003.54 1003.86 1003.92 1003.90 1004.57 1005.32 1006.19 1006.70 1006.49 1006.76 1007.32 1007.96 1008.24 1008.97 1009.60 1010.26 1010.62 1010.96 1010.70 1010.68 1010.77 1010.69 1011.32 1011.61 1012.20 1012.20 1012.08 1012.40 1012.53 1012.57
1003.43 1003.28 1003.18 1002.59 1002.78 1002.62 1002.39 1002.39 1002.56 1001.95 1002.55 1003.52 1003.96 1004.31 1003.33 1003.83 1004.65 1004.67 1004.43 1004.13 1004.49 1004.70 1004.48 1005.07 1006.12 1006.94 1007.23 1007.37 1006.96 1007.08 1007.54 1007.79 1008.02 1008.51 1009.35 1009.96 1010.18 1010.34 1010.45 1010.90 1010.65 1010.29 1010.61 1010.73 1011.28 1011.50 1011.62 1011.80 1011.86
1003.84 1003.79 1003.33 1002.88 1002.82 1003.05 1002.82 1002.78 1002.73 1002.16 1002.60 1002.67 1003.26 1004.13 1004.29 1003.81 1004.30 1004.71 1004.64 1004.87 1004.80 1005.35 1005.63 1005.42 1006.01 1006.94 1007.45 1007.73 1007.90 1007.57 1008.02 1007.39 1007.90 1008.07 1008.51 1009.37 1009.78 1009.96 1010.18 1010.64 1010.64 1010.51 1010.31 1010.35 1010.51 1010.99 1011.32 1011.51 1011.62
1004.75 1004.44 1003.79 1003.35 1003.13 1002.90 1003.05 1002.18 1001.71 1002.14 1002.14 1001.82 1002.52 1003.65 1003.95 1003.64 1003.97 1003.90 1004.15 1004.68 1005.68 1005.99 1006.00 1006.07 1006.05 1007.01 1007.37 1007.59 1008.07 1008.13 1008.39 1008.11 1007.80 1007.93 1008.25 1008.78 1009.72 1009.77 1010.08 1010.20 1010.40 1010.18 1010.21 1010.47 1010.72 1011.19 1011.27 1011.34 1011.29
1005.13 1004.23 1002.88 1001.88 1001.84 1002.14 1002.89 1000.98 1001.27 1001.25 1001.00 1001.36 1002.29 1002.88 1003.51 1003.98 1003.83 1003.56 1003.99 1004.40 1005.69 1006.36 1006.52 1006.76 1006.72 1006.50 1006.83 1007.47 1007.67 1007.89 1008.31 1008.24 1008.09 1007.56 1008.04 1008.45 1008.88 1009.76 1009.91 1010.03 1009.89 1009.86 1010.08 1010.06 1010.35 1010.58 1010.84 1010.49 1010.50
1003.82 1002.75 1001.91 1001.07 1001.44 1002.40 1002.39 1001.48 1001.26 1000.84 1001.51 1001.80 1002.42 1002.68 1003.18 1003.61 1003.93 1003.76 1003.68 1004.84 1005.82 1006.22 1006.50 1006.84 1007.00 1006.38 1006.29 1007.41 1007.52 1007.31 1008.29 1008.05 1007.84 1007.56 1007.64 1007.81 1008.41 1009.04 1009.64 1009.33 1009.34 1009.53 1009.97 1009.79 1009.72 1008.87 1009.48 1009.51 1009.68
1002.24 1001.62 1001.53 1001.26 1001.42 1002.00 1002.48 1001.75 1001.53 1001.11 1001.37 1001.85 1002.28 1002.54 1002.72 1003.25 1003.92 1004.02 1003.82 1004.87 1006.23 1006.25 1005.98 1005.40 1007.01 1006.37 1006.85 1007.28 1007.47 1007.49 1008.22 1007.77 1007.19 1007.52 1007.56 1007.64 1007.84 1008.41 1009.00 1008.98 1008.97 1009.19 1009.55 1009.57 1009.30 1009.01 1009.18 1009.25 1009.14
1003.99 1003.66 1002.62 1002.18 1002.12 1002.41 1002.38 1002.18 1001.85 1001.40 1000.94 1000.84 1001.34 1001.75 1002.02 1002.40 1003.25 1004.07 1004.25 1004.93 1006.07 1006.33 1006.02 1005.73 1006.00 1007.04 1006.88 1007.37 1007.33 1007.81 1006.27 1006.75 1007.52 1006.96 1006.92 1007.06 1007.51 1007.93 1008.32 1008.57 1008.82 1009.03 1008.94 1009.15 1009.21 1009.10 1008.90 1008.95 1008.91
1004.87 1004.13 1003.33 1002.95 1002.77 1003.00 1002.84 1002.10 1001.85 1001.25 1000.73 1000.65 1000.70 1000.92 1001.12 1001.45 1002.42 1003.59 1004.30 1005.40 1005.83 1005.98 1006.00 1005.81 1006.06 1007.14 1008.00 1007.52 1007.70 1007.68 1007.33 1006.81 1006.69 1006.56 1006.36 1006.33 1007.13 1007.94 1007.96 1008.34 1008.14 1008.48 1008.30 1008.64 1008.85 1008.36 1008.02 1008.26 1008.49
1004.67 1004.14 1003.67 1003.32 1003.12 1003.20 1003.06 1001.64 1000.85 999.72 999.49 999.91 1000.04 1000.23 1000.63 1000.90 1001.46 1003.06 1003.96 1005.09 1005.88 1005.89 1006.63 1006.52 1006.45 1006.78 1007.21 1007.39 1007.00 1008.05 1008.02 1007.59 1006.94 1006.57 1005.83 1006.13 1006.27 1007.12 1007.82 1007.88 1008.24 1008.39 1008.25 1007.72 1007.94 1007.88 1007.66 1007.27 1007.52
1004.14 1004.08 1003.79 1003.91 1004.13 1002.82 1002.31 1000.15 999.83 999.24 999.18 999.44 1000.01 1000.26 1000.59 1001.18 1002.05 1003.20 1004.55 1005.33 1005.78 1005.73 1006.33 1006.53 1006.71 1007.63 1006.83 1007.04 1006.98 1006.44 1006.64 1007.04 1005.91 1005.58 1005.45 1005.10 1005.41 1006.10 1006.52 1006.97 1007.46 1007.75 1007.71 1007.37 1006.64 1007.07 1006.98 1007.24 1006.74
1004.38 1004.56 1004.30 1004.42 1004.00 1003.33 1002.24 1000.92 999.12 998.59 998.25 998.66 999.82 1000.54 1000.79 1001.20 1002.01 1003.07 1004.03 1005.06 1005.43 1005.99 1006.26 1006.40 1006.53 1006.99 1006.58 1007.15 1007.46 1006.79 1006.34 1006.33 1005.14 1005.62 1005.08 1004.51 1004.82 1005.64 1005.47 1005.69 1006.23 1006.94 1007.18 1007.21 1005.65 1005.85 1006.36 1006.34 1006.35
1004.94 1004.88 1004.61 1004.45 1003.62 1002.25 1001.09 1000.09 998.27 997.70 997.52 998.51 999.89 1000.76 1001.06 1001.43 1002.00 1002.58 1003.39 1004.58 1004.88 1005.04 1005.29 1005.67 1005.80 1006.20 1006.45 1006.44 1006.08 1005.42 1005.99 1006.53 1005.64 1004.98 1003.89 1003.86 1004.15 1004.50 1004.20 1004.42 1005.41 1005.89 1006.11 1006.62 1005.62 1005.16 1005.92 1006.38 1006.05
1004.42 1004.80 1003.75 1003.04 1002.01 1000.75 999.32 999.07 997.94 997.99 998.71 998.89 999.62 1000.25 1000.90 1001.15 1001.59 1002.18 1002.96 1003.33 1003.77 1004.51 1004.94 1005.21 1005.48 1005.89 1006.31 1006.37 1005.73 1005.40 1005.43 1005.39 1004.80 1004.35 1003.48 1004.23 1003.84 1003.33 1004.00 1004.25 1004.42 1004.46 1005.44 1005.65 1005.57 1004.79 1004.99 1005.58 1006.00
1003.45 1004.33 1004.04 1003.29 1002.28 1000.81 1000.36 999.60 998.02 998.58 998.58 999.44 1000.15 1000.84 1001.16 1001.19 1001.34 1001.74 1002.28 1002.76 1003.15 1003.55 1004.25 1004.77 1004.93 1005.16 1005.22 1005.46 1005.18 1005.17 1005.30 1005.30 1004.66 1003.94 1003.90 1003.42 1003.34 1003.38 1003.44 1003.12 1003.06 1003.47 1004.25 1004.66 1004.44 1004.02 1004.43 1004.69 1004.90
1003.42 1003.34 1003.94 1004.12 1003.71 1002.86 1000.79 999.28 998.38 998.66 999.18 1000.01 1000.35 1000.58 1001.03 1001.22 1001.34 1001.94 1002.16 1002.32 1002.45 1003.06 1003.52 1004.01 1004.20 1004.58 1004.77 1004.68 1004.66 1004.62 1004.55 1004.98 1004.57 1003.68 1003.54 1003.26 1003.33 1002.93 1002.54 1002.03 1002.33 1002.93 1003.43 1003.41 1003.42 1003.61 1004.01 1004.35 1004.20
1003.94 1004.07 1004.22 1005.39 1004.04 1002.54 1001.01 999.39 997.87 998.01 999.11 999.31 999.98 1000.47 1000.80 1000.88 1001.09 1001.38 1001.47 1001.79 1001.96 1002.21 1002.66 1003.19 1003.52 1003.43 1003.63 1003.92 1004.01 1003.81 1003.92 1003.97 1003.62 1003.16 1002.87 1003.04 1002.97 1002.49 1002.02 1001.79 1001.82 1002.24 1002.59 1002.64 1002.58 1002.90 1003.54 1003.86 1004.29
1003.26 1003.46 1004.01 1004.08 1004.06 1003.20 1001.78 1000.29 999.16 1000.04 999.77 999.58 999.76 1000.19 1000.35 1000.66 1000.67 1000.75 1000.83 1000.89 1000.95 1001.14 1001.38 1001.79 1002.26 1002.60 1002.85 1003.12 1003.29 1003.35 1003.21 1003.07 1002.75 1002.31 1002.15 1002.25 1002.44 1002.21 1001.91 1001.62 1001.46 1001.68 1001.47 1001.54 1001.71 1002.19 1002.84 1003.29 1004.02
1003.40 1003.30 1004.49 1005.02 1003.49 1002.81 1001.84 999.65 999.62 1000.50 999.75 999.97 999.93 1000.16 1000.06 1000.06 1000.05 1000.16 1000.43 1000.34 1000.38 1000.54 1000.87 1001.19 1001.56 1002.17 1002.32 1002.34 1002.33 1002.16 1002.21 1002.16 1001.94 1001.52 1001.62 1001.61 1001.48 1001.36 1001.23 1001.20 1001.17 1000.42 1000.43 1000.25 1000.96 1001.89 1001.88 1002.47 1003.18
Wind_Speed
17 7 5 2 7 9 16 18 4 1 11 4 8 8 11 14 14 7 5 9 9 17 19 20 17 17 15 13 14 15 15 14 14 14 14 13 13 13 13 12 11 11 10 10 9 8 8 7 6
12 8 7 1 0 16 14 16 7 12 8 5 8 7 10 10 14 8 15 12 4 18 18 20 18 16 17 13 13 14 15 15 14 14 14 14 13 13 13 12 12 11 11 9 9 8 8 7 6
13 10 10 6 9 12 18 5 5 1 5 7 5 2 6 5 14 13 17 17 2 15 18 18 19 18 18 13 10 12 14 15 14 15 14 13 13 13 12 11 11 11 11 10 9 8 7 7 6
7 9 8 11 15 19 27 27 6 4 9 4 4 7 4 11 12 15 16 12 8 14 18 21 18 20 19 16 11 9 11 12 13 14 14 14 13 12 10 10 9 9 10 9 9 9 8 8 7
9 8 12 16 18 16 16 21 14 13 6 5 2 9 2 8 13 15 13 11 9 14 18 21 20 17 18 18 14 10 10 10 11 11 12 12 12 11 10 9 8 8 8 9 9 8 8 7 6
10 11 14 16 20 15 16 11 20 15 20 8 3 7 8 12 15 15 12 10 8 14 16 18 19 16 17 17 13 11 9 8 9 9 9 9 10 11 11 9 8 7 7 7 7 7 7 7 7
17 15 19 21 19 16 12 14 19 15 15 28 7 5 10 10 14 16 9 6 9 13 16 16 19 15 13 15 15 10 8 7 7 8 8 8 9 8 9 9 8 8 7 7 7 7 7 7 8
14 15 26 21 18 21 11 12 14 15 18 22 28 9 13 13 14 14 12 6 6 13 16 16 17 18 16 15 13 14 10 8 6 6 8 8 8 7 7 7 8 8 8 8 7 8 8 7 8
18 18 19 25 23 19 9 19 15 16 18 21 20 22 7 7 14 14 12 7 4 8 13 14 17 16 16 16 14 13 13 11 9 7 6 8 10 11 12 11 9 12 10 10 9 9 9 8 9
18 16 25 22 20 19 17 19 9 12 11 18 19 22 16 5 14 14 12 9 1 9 12 13 15 16 16 13 14 14 13 11 11 11 12 10 11 10 10 11 13 12 11 10 9 9 9 9 10
20 22 22 21 20 21 20 16 13 12 14 12 16 18 25 5 16 12 14 8 12 11 7 12 12 11 14 13 11 8 8 9 9 14 11 10 9 9 8 6 8 8 12 9 12 10 9 12 10
20 22 20 21 22 19 16 17 21 17 18 12 7 18 21 16 14 12 14 10 2 6 13 8 7 7 9 9 10 10 10 10 9 12 12 9 8 7 7 7 9 8 7 9 9 8 9 11 12
18 18 19 21 14 20 17 16 22 24 13 17 11 15 18 18 11 10 11 11 2 3 2 7 8 8 6 7 6 7 8 10 11 10 12 10 10 8 7 7 8 6 7 8 7 8 6 9 11
14 11 17 20 13 19 19 22 24 25 19 21 18 17 19 20 16 12 4 12 11 3 1 3 13 11 11 10 9 4 5 8 9 9 9 13 9 7 8 8 8 8 7 6 5 6 7 7 9
11 17 18 18 18 21 19 25 27 22 22 23 18 16 16 19 24 24 15 8 3 6 5 3 10 12 12 11 10 7 10 9 9 10 8 10 11 9 8 8 8 8 7 6 5 6 7 7 8
17 18 19 18 23 21 17 26 22 22 22 27 13 18 10 16 17 12 16 4 5 2 3 3 6 7 13 10 7 9 9 10 10 8 9 12 11 11 9 9 8 8 6 7 6 7 9 8 7
17 16 19 20 8 7 18 21 19 21 9 11 14 13 13 13 12 10 5 7 2 6 5 3 3 7 7 3 4 5 10 9 7 9 10 10 13 13 12 10 9 8 9 8 7 9 10 7 7
15 16 14 17 9 14 17 20 18 17 16 17 17 17 16 13 11 6 8 8 3 2 4 10 4 1 2 1 5 3 6 8 6 9 9 11 10 13 12 10 9 9 10 9 11 7 7 7 6
14 17 17 16 10 13 16 20 20 20 20 19 17 19 18 16 13 9 5 6 3 3 5 6 8 9 1 5 4 10 5 6 6 7 8 9 8 13 13 11 8 11 10 11 8 7 8 8 7
15 17 18 16 15 12 18 22 21 21 22 21 21 20 21 19 17 13 12 8 5 3 6 6 5 4 6 1 3 4 10 9 8 5 7 6 11 12 10 11 10 13 11 11 9 9 10 8 7
17 18 17 18 15 16 19 26 25 27 26 23 21 14 12 15 14 13 9 7 5 5 2 3 3 3 5 7 1 4 7 8 9 8 6 9 10 11 13 13 11 12 11 8 11 12 11 9 8
16 13 14 11 14 15 18 18 19 19 12 13 10 12 7 12 5 5 9 9 6 4 1 1 0 5 6 4 6 6 5 12 11 5 5 6 5 12 13 13 13 14 9 15 12 10 10 9 9
16 16 18 14 18 20 21 16 16 20 18 11 9 9 8 11 13 16 12 6 7 6 6 3 3 5 5 6 7 5 8 12 8 5 8 8 6 9 13 12 12 14 11 15 13 12 12 11 9
13 16 16 18 18 19 22 20 17 15 15 13 10 11 6 9 8 8 8 11 9 8 6 4 5 6 6 7 10 9 10 11 10 8 5 5 5 4 8 9 12 15 14 17 12 10 12 10 9
18 16 14 17 15 17 18 7 10 6 3 5 16 8 6 11 11 11 10 10 7 5 8 8 11 8 7 8 8 10 12 13 14 11 6 8 5 4 14 17 14 13 15 17 11 10 12 12 10
21 13 12 15 16 17 4 10 4 3 1 7 4 9 9 11 10 10 7 9 10 9 8 9 8 7 8 10 10 9 10 12 12 11 9 8 9 10 15 14 14 19 18 17 14 12 11 11 11
16 19 15 19 19 17 22 26 21 15 9 8 11 9 8 9 9 7 12 12 10 9 10 10 10 9 10 10 10 11 10 14 13 13 9 9 12 12 13 15 12 16 18 17 14 11 12 12 10
18 17 14 7 15 22 18 21 14 11 14 12 8 9 12 10 13 13 12 15 13 11 11 12 12 13 11 11 12 12 13 15 14 13 13 13 14 13 14 14 16 14 17 16 15 12 11 11 9
14 19 19 19 14 12 15 13 9 8 6 5 5 9 10 12 13 15 15 16 14 13 13 12 12 13 12 14 13 14 14 16 15 14 14 14 15 16 17 15 16 17 17 15 13 13 13 14 13
18 17 15 9 17 16 17 20 15 7 2 2 6 13 17 15 15 15 16 18 15 15 14 15 10 13 14 15 15 16 15 15 15 14 15 15 16 16 17 17 20 17 17 16 15 17 15 17 15
Wind_Direction
283 267 279 316 266 236 246 231 248 118 212 44 350 290 290 324 341 29 71 34 106 132 157 165 152 149 155 166 165 161 159 156 157 157 154 153 151 146 142 143 147 147 147 151 148 144 135 131 132
304 288 243 209 290 261 221 239 142 237 55 333 263 243 238 281 40 13 339 13 75 133 157 173 155 158 151 166 171 163 161 161 160 160 158 160 157 153 150 151 158 156 155 158 155 152 144 143 138
261 263 266 229 193 235 275 115 243 121 88 270 271 20 337 355 11 355 338 317 239 148 163 170 164 158 151 161 175 166 164 163 163 165 164 166 162 157 157 159 161 164 164 167 164 154 156 156 159
265 223 244 254 237 216 252 280 263 319 225 242 268 274 126 66 10 346 327 302 247 178 169 149 169 161 156 156 163 172 168 167 167 170 169 170 163 157 157 159 165 172 171 176 173 165 169 175 174
239 267 254 238 249 245 209 255 280 245 245 250 234 265 288 69 12 345 344 313 228 193 171 155 169 172 161 154 160 169 171 172 171 172 172 171 164 158 155 164 172 184 182 184 184 176 177 185 193
232 234 247 250 243 230 236 254 245 247 279 246 265 259 264 68 7 343 8 337 257 191 173 153 167 179 165 155 159 163 166 167 162 166 167 171 169 162 160 168 175 193 200 198 195 189 182 192 199
246 245 240 253 258 258 207 215 250 226 242 280 297 304 288 40 356 330 8 1 272 196 175 151 177 184 167 158 149 153 149 151 154 157 161 167 169 170 166 169 181 200 204 208 201 202 199 200 206
244 248 258 255 254 255 240 220 222 252 233 227 282 248 258 32 330 321 347 44 245 208 174 155 177 186 188 178 153 150 146 143 148 158 158 164 162 174 179 175 195 208 208 219 210 210 213 218 216
235 251 247 246 252 252 214 241 197 250 244 260 218 269 301 347 331 332 336 12 274 187 176 169 177 182 193 188 173 155 156 157 156 172 177 173 210 193 193 205 196 195 215 216 219 218 217 223 234
232 239 244 259 261 266 242 236 204 225 242 258 221 239 269 355 331 330 328 20 190 231 190 182 181 182 195 195 173 195 188 198 201 206 202 219 219 220 211 204 184 194 210 225 225 227 223 228 253
226 246 264 263 263 269 273 266 204 235 240 236 252 234 249 316 306 317 321 23 328 212 222 199 178 177 202 205 179 185 198 193 200 210 209 205 225 227 205 226 181 211 203 230 207 218 231 238 245
247 252 264 269 277 280 264 280 270 201 239 247 262 295 235 253 289 316 310 332 67 237 199 206 171 213 202 223 190 190 196 191 198 200 203 223 208 225 236 221 221 191 213 214 245 220 223 226 245
246 268 272 272 266 280 272 254 262 265 222 239 267 279 271 230 255 300 333 317 9 20 245 196 209 209 244 277 275 213 204 198 200 199 192 211 223 219 214 246 242 238 212 216 221 239 256 236 244
264 282 279 273 242 255 255 254 255 254 250 250 233 249 256 247 232 241 231 318 333 133 33 263 179 192 204 227 260 238 261 216 208 210 206 193 222 225 224 219 237 246 244 251 246 234 244 240 261
268 268 255 252 254 255 259 258 254 262 260 259 215 234 253 238 243 252 259 238 276 242 166 46 168 183 196 207 230 240 230 238 224 215 215 194 202 234 219 230 226 235 235 237 249 280 253 253 262
254 254 258 247 231 231 240 259 258 250 248 238 240 254 260 262 263 262 237 175 142 313 305 324 349 141 180 201 235 225 234 245 230 239 220 209 205 219 211 235 229 235 240 225 212 216 242 241 242
230 254 259 250 176 235 244 258 264 252 219 255 249 245 251 264 273 247 199 140 300 143 90 53 337 76 66 112 229 218 252 221 247 242 230 220 208 213 225 213 228 197 235 223 214 193 224 234 236
282 259 224 263 255 191 244 258 264 260 209 229 245 249 246 245 249 265 167 132 108 179 92 84 31 263 51 282 193 233 233 236 235 252 227 223 214 211 214 228 222 191 228 231 229 206 220 235 247
320 292 287 292 291 282 280 274 273 270 264 255 245 251 245 240 226 221 168 140 151 91 64 58 49 359 317 255 275 274 227 207 235 231 247 222 222 217 210 221 202 215 220 230 231 213 210 239 220
267 271 268 269 267 277 273 271 273 268 260 255 256 252 247 231 224 218 187 164 164 91 47 31 64 37 329 184 177 248 294 278 279 228 225 243 212 223 222 220 223 217 224 224 232 205 211 216 226
253 263 276 282 304 293 281 266 256 253 241 244 246 253 260 265 222 200 193 197 206 141 97 79 11 319 318 300 208 226 247 256 251 239 218 214 219 229 219 225 235 236 227 211 211 216 213 219 208
274 278 282 292 274 273 287 293 290 290 231 211 233 250 226 219 181 177 206 190 203 203 275 269 187 264 247 314 295 287 250 253 247 225 240 243 258 226 224 222 230 244 232 232 197 210 213 220 225
287 299 287 270 276 281 268 263 270 249 244 237 183 202 194 194 181 194 186 192 213 192 219 224 255 263 279 260 248 254 262 282 272 229 223 215 213 260 210 223 217 237 233 245 223 198 201 197 222
288 281 269 263 258 254 259 251 260 267 191 185 162 191 202 200 223 205 188 200 221 211 226 254 269 273 257 275 287 281 268 263 273 279 263 217 244 239 255 239 230 229 227 247 221 202 202 222 206
241 255 261 256 241 254 253 254 283 1 131 286 177 230 281 244 217 216 208 233 223 242 237 232 225 246 253 259 268 269 274 278 280 275 273 277 220 257 253 239 222 233 226 234 233 204 201 201 228
268 248 277 282 285 294 347 255 236 10 320 188 311 272 267 263 252 234 243 276 273 259 251 256 249 247 265 285 286 274 265 265 259 246 260 264 256 236 226 234 222 225 223 221 218 204 209 201 198
261 262 266 285 274 276 279 274 274 176 179 216 238 238 238 244 246 270 262 267 266 259 269 263 270 259 255 266 265 275 262 258 262 269 261 242 239 262 261 239 221 226 223 221 209 215 199 207 185
266 282 264 253 269 262 268 267 265 151 188 183 198 237 244 250 267 250 283 285 274 262 254 259 252 268 282 278 275 256 262 260 254 254 250 256 265 272 258 257 232 219 224 217 208 204 199 199 186
241 234 241 255 232 262 277 284 97 100 244 220 282 293 294 283 273 271 285 277 266 265 265 261 264 277 273 277 275 269 261 261 258 254 253 247 251 250 253 253 250 215 221 209 200 206 195 194 203
271 261 216 260 261 250 262 262 135 203 239 258 251 242 249 272 288 289 280 274 275 280 274 267 261 272 281 282 278 271 268 260 261 253 255 248 247 241 243 232 238 221 215 199 195 202 195 196 202